| time (UTC) | temp F | wind direction | speed MPH | gust MPH | rain 1hr in | rain 24hr in | rain mn in | humidity % | barometer mb |
| 20260505153057 | 30 | 286 | 2.0 | 10.0 | 0.00 | 0.00 | 0.00 | 75 | 1007.9 |
| 20260505151553 | 29 | 300 | 1.0 | 10.0 | 0.00 | 0.00 | 0.00 | 76 | 1007.7 |
| 20260505140109 | 28 | 257 | 3.0 | 9.0 | 0.00 | 0.00 | 0.00 | 76 | 1007.0 |
| 20260505124554 | 28 | 251 | 3.0 | 13.0 | 0.00 | 0.00 | 0.00 | 72 | 1006.2 |
| 20260505123059 | 28 | 226 | 2.0 | 10.0 | 0.00 | 0.00 | 0.00 | 73 | 1006.0 |
| 20260505121552 | 29 | 31 | 2.0 | 7.0 | 0.00 | 0.00 | 0.00 | 73 | 1006.0 |
| 20260505120107 | 29 | 302 | 3.0 | 9.0 | 0.00 | 0.00 | 0.00 | 72 | 1005.8 |
| 20260505114557 | 29 | 332 | 2.0 | 12.0 | 0.00 | 0.04 | 0.00 | 74 | 1005.4 |
| 20260505113104 | 28 | 265 | 1.0 | 6.0 | 0.00 | 0.04 | 0.00 | 75 | 1005.3 |
| 20260505111552 | 29 | 140 | 0.0 | 10.0 | 0.00 | 0.04 | 0.00 | 77 | 1005.3 |
| 20260505101554 | 29 | 298 | 4.0 | 10.0 | 0.00 | 0.06 | 0.00 | 75 | 1005.0 |
| 20260505100052 | 29 | 283 | 1.0 | 11.0 | 0.00 | 0.06 | 0.00 | 76 | 1004.9 |
| 20260505094601 | 29 | 12 | 2.0 | 9.0 | 0.00 | 0.06 | 0.00 | 77 | 1004.7 |
| 20260505093055 | 29 | 293 | 3.0 | 11.0 | 0.00 | 0.06 | 0.00 | 78 | 1004.9 |
| 20260505091550 | 29 | 271 | 2.0 | 10.0 | 0.00 | 0.06 | 0.00 | 79 | 1004.7 |
| 20260505090058 | 29 | 276 | 2.0 | 11.0 | 0.00 | 0.06 | 0.00 | 81 | 1004.5 |
| 20260505084556 | 29 | 281 | 0.0 | 7.0 | 0.00 | 0.06 | 0.00 | 84 | 1004.3 |
| 20260505083104 | 29 | 279 | 1.0 | 8.0 | 0.00 | 0.06 | 0.00 | 84 | 1004.1 |
| 20260505081554 | 29 | 287 | 1.0 | 8.0 | 0.00 | 0.06 | 0.00 | 85 | 1004.0 |
| 20260505080050 | 30 | 13 | 1.0 | 8.0 | 0.00 | 0.06 | 0.00 | 86 | 1003.8 |
| 20260505074555 | 31 | 0 | 2.0 | 8.0 | 0.00 | 0.06 | 0.00 | 87 | 1003.6 |
| 20260505073057 | 31 | 0 | 0.0 | 8.0 | 0.00 | 0.06 | 0.00 | 88 | 1003.5 |
| 20260505071600 | 31 | 261 | 0.0 | 8.0 | 0.00 | 0.06 | 0.00 | 87 | 1003.6 |
| 20260505064557 | 31 | 261 | 3.0 | 11.0 | 0.00 | 0.06 | 0.00 | 84 | 1003.8 |
| 20260505063054 | 32 | 297 | 2.0 | 12.0 | 0.00 | 0.06 | 0.00 | 80 | 1003.7 |
| 20260505061612 | 32 | 315 | 1.0 | 18.0 | 0.00 | 0.06 | 0.00 | 79 | 1003.5 |
| 20260505060059 | 32 | 16 | 2.0 | 12.0 | 0.00 | 0.06 | 0.00 | 79 | 1003.5 |
| 20260505054557 | 32 | 284 | 1.0 | 7.0 | 0.00 | 0.06 | 0.00 | 79 | 1003.6 |
| 20260505053052 | 32 | 234 | 1.0 | 12.0 | 0.00 | 0.06 | 0.00 | 79 | 1003.4 |
| 20260505051550 | 33 | 278 | 2.0 | 14.0 | 0.00 | 0.06 | 0.00 | 80 | 1003.5 |
| 20260505041556 | 34 | 28 | 2.0 | 9.0 | 0.00 | 0.06 | 0.06 | 82 | 1002.9 |
| 20260505034554 | 34 | 269 | 0.0 | 7.0 | 0.00 | 0.06 | 0.06 | 86 | 1002.8 |
| 20260505033100 | 34 | 0 | 1.0 | 8.0 | 0.00 | 0.06 | 0.06 | 86 | 1002.7 |
| 20260505031556 | 35 | 9 | 3.0 | 11.0 | 0.00 | 0.06 | 0.06 | 83 | 1003.0 |
| 20260505030104 | 35 | 291 | 3.0 | 9.0 | 0.00 | 0.06 | 0.06 | 80 | 1002.7 |
| 20260505024553 | 36 | 296 | 1.0 | 8.0 | 0.00 | 0.06 | 0.06 | 80 | 1002.5 |
| 20260505023051 | 36 | 292 | 2.0 | 9.0 | 0.00 | 0.06 | 0.06 | 80 | 1002.3 |
| 20260505021553 | 36 | 0 | 1.0 | 9.0 | 0.00 | 0.06 | 0.06 | 80 | 1002.2 |
| 20260505020051 | 36 | 317 | 2.0 | 10.0 | 0.00 | 0.06 | 0.06 | 81 | 1001.9 |
| 20260505014553 | 36 | 321 | 2.0 | 8.0 | 0.00 | 0.06 | 0.06 | 84 | 1001.4 |
| 20260505013051 | 35 | 188 | 1.0 | 11.0 | 0.00 | 0.06 | 0.06 | 86 | 1001.5 |
| 20260505011552 | 35 | 285 | 0.0 | 6.0 | 0.00 | 0.06 | 0.06 | 88 | 1001.5 |
| 20260505010059 | 35 | 258 | 1.0 | 7.0 | 0.00 | 0.06 | 0.06 | 87 | 1001.3 |
| 20260505004552 | 38 | 264 | 2.0 | 14.0 | 0.00 | 0.06 | 0.06 | 79 | 1001.4 |
| 20260505003051 | 40 | 19 | 2.0 | 11.0 | 0.00 | 0.06 | 0.06 | 68 | 1000.9 |
| 20260505001550 | 40 | 282 | 1.0 | 12.0 | 0.00 | 0.06 | 0.06 | 68 | 1001.0 |
| 20260505000100 | 41 | 281 | 4.0 | 15.0 | 0.00 | 0.06 | 0.06 | 65 | 1000.8 |
| 20260504234602 | 42 | 230 | 3.0 | 11.0 | 0.00 | 0.06 | 0.06 | 61 | 1000.4 |
| 20260504233051 | 42 | 269 | 6.0 | 15.0 | 0.00 | 0.06 | 0.06 | 61 | 1000.3 |
| 20260504231550 | 42 | 250 | 2.0 | 12.0 | 0.00 | 0.06 | 0.06 | 62 | 1000.2 |
| 20260504230113 | 42 | 248 | 4.0 | 16.0 | 0.00 | 0.06 | 0.06 | 63 | 1000.1 |
| 20260504224605 | 42 | 290 | 4.0 | 17.0 | 0.00 | 0.06 | 0.06 | 64 | 999.9 |
| 20260504223058 | 42 | 272 | 4.0 | 12.0 | 0.00 | 0.06 | 0.06 | 63 | 999.8 |
| 20260504221556 | 42 | 320 | 3.0 | 18.0 | 0.00 | 0.06 | 0.06 | 63 | 999.8 |
| 20260504220104 | 42 | 236 | 4.0 | 16.0 | 0.00 | 0.06 | 0.06 | 63 | 999.5 |
| 20260504214559 | 43 | 288 | 4.0 | 14.0 | 0.00 | 0.06 | 0.06 | 64 | 999.3 |
| 20260504213110 | 43 | 264 | 4.0 | 14.0 | 0.00 | 0.06 | 0.06 | 64 | 998.9 |
| 20260504211555 | 43 | 246 | 7.0 | 18.0 | 0.00 | 0.06 | 0.06 | 63 | 998.9 |
| 20260504210105 | 44 | 311 | 5.0 | 16.0 | 0.00 | 0.06 | 0.06 | 63 | 998.9 |
| 20260504204603 | 44 | 269 | 5.0 | 19.0 | 0.00 | 0.06 | 0.06 | 64 | 998.9 |
| 20260504203052 | 44 | 292 | 5.0 | 18.0 | 0.00 | 0.06 | 0.06 | 65 | 998.3 |
| 20260504201558 | 45 | 20 | 5.0 | 12.0 | 0.00 | 0.06 | 0.06 | 68 | 998.3 |
| 20260504200054 | 43 | 276 | 4.0 | 11.0 | 0.00 | 0.06 | 0.06 | 71 | 998.3 |
| 20260504194630 | 43 | 292 | 2.0 | 15.0 | 0.00 | 0.06 | 0.06 | 70 | 998.0 |
| 20260504193103 | 45 | 234 | 5.0 | 17.0 | 0.00 | 0.06 | 0.06 | 66 | 997.7 |
| 20260504191548 | 44 | 270 | 5.0 | 14.0 | 0.00 | 0.06 | 0.06 | 66 | 997.6 |
| 20260504184552 | 46 | 38 | 3.0 | 16.0 | 0.00 | 0.06 | 0.06 | 68 | 997.3 |
| 20260504183059 | 45 | 248 | 3.0 | 19.0 | 0.00 | 0.06 | 0.06 | 75 | 997.0 |
| 20260504181552 | 43 | 258 | 6.0 | 15.0 | 0.00 | 0.06 | 0.06 | 76 | 996.9 |
| 20260504180131 | 43 | 269 | 3.0 | 9.0 | 0.00 | 0.06 | 0.06 | 83 | 996.5 |
| 20260504174552 | 43 | 250 | 2.0 | 11.0 | 0.00 | 0.06 | 0.06 | 79 | 996.3 |
| 20260504173052 | 43 | 298 | 4.0 | 14.0 | 0.00 | 0.06 | 0.06 | 85 | 995.8 |
| 20260504171553 | 45 | 229 | 4.0 | 16.0 | 0.00 | 0.06 | 0.06 | 74 | 995.8 |